Вернуться в каталог

STARLINK-3503

АктивенСвязьVLEO
NORAD 51865·PAYLOAD·🇺🇸 United States

Запущен Mar 3, 2022 с Cape Canaveral Space Force Station

Loading…

Ближайшие Пролёты (ближайшие 24 часа)

TLE

СвежийSource: CelesTrak SupGP

Эпоха: Sep 15, 2026, 02:59 UTC

1 51865C 22022P   26258.12479167 -.00038492  00000+0 -11014-2 0  2587
2 51865  53.1585 228.7384 0001369  86.4474 279.2241 15.35415347    16

Отслеживайте STARLINK-3503 в реальном времени с AllMySat

Download on the App Store